OPS 4682 DEB, 19511

Orbit data source: Space-Track

OPS 4682 DEB, 19511 is space debris in LEO originally from a launch on Sat, 03 Apr 1965 UTC launched from the Air Force Western Test Range (AFWTR). Debris objects in space refer to the collection of defunct objects orbiting the Earth. Examples of debris include non-operational satellites, rocket bodies, and fragments generated from explosions, collisions, or faulty payload assembly.

Loading next visibility...
Identifier
19511, 1965-027AU
Orbit
LEO
Country
Flag of USUS
Related business
Manufacturer
Unknown
Mission
Spacecraft
Bus & Motor
Unknown
Mass
Unknown
Launch date (UTC)
1965-04-03 (61 years ago)
Launch vehicle
Unknown
Launch site
Air Force Western Test Range (AFWTR)
Object type
Payload
Rocket body
Debris
Shape & HBR
Unknown shape, 0.1 m
Radar Cross Section
Small (<0.1 m²)

Expand to show TLE details & history
Last TLE update: 12 hours ago

TLE from 12 hours ago
0 OPS 4682 DEB
1 19511U 65027AU  26036.06500213  .00000502  00000-0  16906-2 0  9992
2 19511  90.2356 355.6620 0033583  47.5849  85.9840 12.97850983784768
Epoch: 2026-02-05T01:33Z
TLE epoch observation values (Epoch: 2026-02-05T01:33:36.184Z)
Latitude
46.13432°
Longitude
17.28254°
Altitude
1,275.897 km
Speed
7.223 km/s
True Right ascension
11h 43m 37s
True Declination
45° 58' 27"
Sunlit
Object was in full shadow at epoch
Visualization orbit readout
Latitude
Unknown
Longitude
Unknown
Altitude
Unknown
Speed
Unknown
Apparent Right ascension
Unknown
Apparent Declination
Unknown
Sunlit
N/A
Visualization observer readout
Local Sidereal Time
15:20:39
Azimuth
Unknown
Elevation
Unknown
Doppler factor
Unknown
Orbital elements
Apogee altitude
1,293.325 km
Perigee altitude
1,241.972 km
Semi-major axis
7,645.785 km
Eccentricity
0.00336
Inclination
90.2356°
RAAN
355.662°
Arg. of periapsis
47.5849°
True anomaly
86.368°
Mean anomaly
85.984°
Eccentric anomaly
86.17599°
Mean motion
3.24646 °/min
Orbital period
110.89 mins
BSTAR
0.0016906
Loading maneuver chart data...
Computing Atmospheric mass density...
Loading historical data...
Loading historical data...
Loading historical data...
Loading historical data...
Loading historical data...
Loading historical data...
Loading historical data...

Documentation

Showing up to 5 results
|